[[{"header":{"parameterUnit":"m.s-1","parameterCategory":1,"la1":30.2992,"la2":30.254,"lo1":-89.0895,"lo2":-89.0443,"dy":0.0025,"dx":0.0025,"nx":19,"ny":19,"refTime":"2026-03-16T21:00:00:Z","depth":0,"parameterNumber":2,"parameterNumberName":"U-component_of_WINDS"},"data":[0,0,0,-0.718,-0.7182,-0.7274,-0.7275,-0.7389,-0.739,0,0,0,0,0,0,0,0,0,0,0,-0.715,-0.7151,-0.718,-0.7182,-0.7274,-0.7275,-0.7389,-0.739,0,0,0,0,0,0,0,0,0,0,0,-0.715,-0.7151,-0.7152,-0.7182,-0.7274,-0.7275,-0.7389,-0.732,0,0,0,0,0,0,0,0,0,0,-0.7231,-0.7202,-0.7151,-0.7152,-0.7183,-0.7274,-0.7275,-0.7317,-0.7325,-0.7346,0,-0.7364,0,-0.7379,-0.7398,-0.7398,0,0,0,-0.7184,-0.7196,-0.7223,-0.7152,-0.7184,-0.7274,-0.7233,-0.7321,-0.733,-0.7356,-0.7366,-0.737,-0.7381,-0.7399,-0.7399,-0.7516,-0.7516,0,0,-0.7178,-0.7166,-0.7217,-0.7228,-0.7214,-0.723,-0.7236,-0.7327,-0.7337,-0.7367,-0.7373,-0.7383,-0.7399,-0.74,-0.7515,-0.7516,0,0,0,-0.7163,-0.7162,-0.7187,-0.7223,-0.724,-0.7233,-0.7239,-0.7333,-0.7342,-0.7374,-0.7384,-0.74,-0.7401,-0.7515,-0.7515,-0.7527,0,0,0,-0.716,-0.7153,-0.7185,-0.7178,-0.7238,-0.7288,-0.7244,-0.7336,-0.7346,-0.7384,-0.74,-0.7402,-0.7514,-0.7515,-0.7525,-0.7534,0,0,0,-0.7145,-0.7152,-0.7164,-0.7177,-0.7217,-0.7287,-0.7301,-0.7338,-0.7352,-0.7398,-0.7403,-0.7514,-0.7515,-0.7524,-0.7532,-0.7561,0,0,0,-0.7126,-0.7174,-0.7164,-0.7221,-0.7216,-0.7293,-0.73,-0.7359,-0.7399,-0.7401,-0.7514,-0.7515,-0.7524,-0.7531,-0.756,-0.7583,-0.7592,0,0,-0.7179,-0.7179,-0.7214,-0.7208,-0.7283,-0.7279,-0.7357,-0.7406,-0.7422,-0.7483,-0.7486,-0.7526,-0.7532,-0.7561,-0.7644,-0.7651,0,0,0,-0.7226,-0.7251,-0.7273,-0.7311,-0.735,-0.7383,-0.7421,-0.7439,-0.7492,-0.7451,-0.7544,-0.7548,-0.7566,-0.7578,-0.7583,-0.7599,-0.752,-0.752,-0.752,-0.7285,-0.7301,-0.7359,-0.7386,-0.7423,-0.7462,-0.7493,-0.7524,-0.7531,-0.7552,-0.7571,-0.7619,-0.7633,-0.7637,-0.7653,-0.7584,-0.7584,-0.7584,-0.7584,-0.7364,-0.7401,-0.7408,-0.7466,-0.7483,-0.7532,-0.7571,-0.7574,-0.7622,-0.7607,-0.7623,-0.7606,-0.7644,-0.7659,-0.7586,-0.7585,-0.7585,-0.7585,-0.7585,-0.7404,-0.7425,-0.7445,-0.7501,-0.7542,-0.7568,-0.7613,-0.7628,-0.7641,-0.7657,-0.7678,-0.7678,-0.768,-0.7666,-0.7666,-0.7666,-0.7667,-0.7667,-0.7667,-0.7438,-0.7461,-0.7497,-0.7541,-0.7566,-0.7602,-0.7639,-0.7665,-0.7697,-0.7704,-0.7704,-0.7708,-0.7644,-0.7628,-0.767,-0.7669,-0.7669,-0.7668,-0.7668,-0.7513,-0.7498,-0.7554,-0.758,-0.7631,-0.7671,-0.7687,-0.7738,-0.7761,-0.7783,-0.7784,-0.7734,-0.7735,-0.7731,-0.7718,-0.778,-0.778,-0.778,-0.778,-0.7547,-0.7549,-0.7609,-0.7649,-0.7689,-0.771,-0.7773,-0.7802,-0.783,-0.7845,-0.7838,-0.7821,-0.7816,-0.7821,-0.7815,-0.7802,-0.7885,-0.7885,-0.7885,-0.7594,-0.76,-0.7651,-0.7678,-0.7719,-0.7753,-0.7813,-0.7858,-0.7886,-0.7889,-0.7857,-0.7853,-0.7826,-0.7817,-0.782,-0.7809,-0.7787,0,0]},{"header":{"parameterUnit":"m.s-1","parameterCategory":1,"la1":30.2992,"la2":30.254,"lo1":-89.0895,"lo2":-89.0443,"dy":0.0025,"dx":0.0025,"nx":19,"ny":19,"refTime":"2026-03-16T21:00:00:Z","depth":0,"parameterNumber":3,"parameterNumberName":"V-component_of_WINDS"},"data":[0,0,0,-2.7558,-2.756,-2.7649,-2.7649,-2.7764,-2.7765,0,0,0,0,0,0,0,0,0,0,0,-2.7534,-2.7535,-2.7558,-2.756,-2.7649,-2.7649,-2.7764,-2.7765,0,0,0,0,0,0,0,0,0,0,0,-2.7534,-2.7535,-2.7536,-2.7561,-2.7649,-2.7649,-2.7764,-2.7696,0,0,0,0,0,0,0,0,0,0,-2.761,-2.759,-2.7535,-2.7536,-2.7561,-2.7648,-2.7649,-2.7693,-2.77,-2.7725,0,-2.7749,0,-2.7759,-2.7773,-2.7774,0,0,0,-2.7558,-2.7584,-2.7606,-2.7536,-2.7562,-2.7648,-2.7608,-2.7697,-2.7705,-2.7735,-2.7751,-2.7755,-2.7761,-2.7774,-2.7775,-2.7928,-2.7928,0,0,-2.7553,-2.7551,-2.76,-2.7611,-2.7599,-2.7605,-2.7611,-2.7702,-2.7718,-2.7751,-2.7758,-2.7763,-2.7775,-2.7776,-2.7927,-2.7928,0,0,0,-2.7541,-2.7548,-2.7567,-2.7607,-2.7623,-2.7608,-2.7614,-2.7714,-2.7721,-2.7759,-2.7764,-2.7776,-2.7777,-2.7926,-2.7927,-2.7964,0,0,0,-2.7538,-2.754,-2.7565,-2.7565,-2.7621,-2.767,-2.7625,-2.7715,-2.7725,-2.7764,-2.7776,-2.7778,-2.7925,-2.7927,-2.7961,-2.7982,0,0,0,-2.7528,-2.7539,-2.7553,-2.7565,-2.7603,-2.7668,-2.768,-2.7717,-2.7729,-2.7774,-2.7779,-2.7924,-2.7926,-2.7959,-2.7978,-2.8021,0,0,0,-2.7516,-2.7585,-2.7554,-2.7633,-2.7602,-2.7691,-2.768,-2.7746,-2.779,-2.7776,-2.7925,-2.7927,-2.7958,-2.7975,-2.8018,-2.8056,-2.8072,0,0,-2.7602,-2.7596,-2.7642,-2.7616,-2.7711,-2.7678,-2.7778,-2.7819,-2.7825,-2.7893,-2.7897,-2.7962,-2.7978,-2.802,-2.8164,-2.8176,0,0,0,-2.7669,-2.7702,-2.7728,-2.7769,-2.7803,-2.7833,-2.786,-2.7875,-2.7932,-2.786,-2.799,-2.7999,-2.8024,-2.8043,-2.8053,-2.8074,-2.7936,-2.7935,-2.7935,-2.7787,-2.7791,-2.7868,-2.7883,-2.7923,-2.7949,-2.7982,-2.8007,-2.7999,-2.803,-2.805,-2.8136,-2.8158,-2.8166,-2.8188,-2.8071,-2.8071,-2.8071,-2.8072,-2.7912,-2.7959,-2.7948,-2.8018,-2.8022,-2.8081,-2.8108,-2.8101,-2.8156,-2.8122,-2.8144,-2.8107,-2.818,-2.8199,-2.8074,-2.8074,-2.8074,-2.8073,-2.8073,-2.7989,-2.8012,-2.803,-2.809,-2.8135,-2.8147,-2.82,-2.8201,-2.8203,-2.8225,-2.8246,-2.8245,-2.8244,-2.8235,-2.8235,-2.8236,-2.8236,-2.8236,-2.8236,-2.8061,-2.808,-2.8125,-2.8166,-2.8192,-2.8227,-2.8253,-2.8279,-2.8308,-2.8304,-2.8305,-2.8293,-2.8187,-2.8159,-2.8241,-2.824,-2.824,-2.8239,-2.8239,-2.8185,-2.8157,-2.8226,-2.8253,-2.83,-2.8344,-2.8346,-2.8397,-2.8419,-2.8444,-2.8429,-2.835,-2.8343,-2.8334,-2.8311,-2.8428,-2.8428,-2.8428,-2.8428,-2.8249,-2.8246,-2.8316,-2.8358,-2.8399,-2.8407,-2.8483,-2.8505,-2.8522,-2.8535,-2.8519,-2.8489,-2.848,-2.8478,-2.8467,-2.8445,-2.8594,-2.8594,-2.8594,-2.8325,-2.8326,-2.8391,-2.8408,-2.8445,-2.8477,-2.8548,-2.8596,-2.861,-2.8601,-2.8545,-2.8538,-2.849,-2.8475,-2.8463,-2.8445,-2.8406,0,0]}]]